sat.trackr.live / text

‹ back to catalog

STARLINK-37792

NORAD 69437 · 2026-126T

PAYLOAD ACTIVE UNKNOWN

§ Identity

Operator
Country
US
Launch date
2026-06-07
Launch site
AFWTR
Launch vehicle
Mass (kg)
RCS (m²)

Purposes: comms

External: N2YO · Heavens-Above · Gunter

§ Orbital elements

Epoch: 2026-09-19T09:55:34.632192Z

Period
93.91 min
Inclination
97.2849°
Eccentricity
0.0002118
Mean motion
15.33440065 rev/d
Perigee alt
464.1 km
Apogee alt
467.0 km
Semi-major
6,843.7 km
B*
3.6089e-4
RAAN
123.6009°
Arg perigee
85.5658°
Mean anomaly
274.5827°
Rev number
1,740

§ Raw data

STARLINK-377921 69437U 26126T   26262.41359528  .00011592  00000+0  36089-3 0  99972 69437  97.2849 123.6009 0002118  85.5658 274.5827 15.33440065 17408

JSON: /api/v1/satellites/69437 · /tle

For live sub-satellite position, see the globe view (requires WebGL).

§ Visibility from observer

Set your observer location to see the next 7 days of passes ≥ 10°. The values pass through the URL so the page stays shareable.

No JS? Fill the form by hand. The geolocation button needs JavaScript.